This demonstration page uses our WeatherBlox Daily Observations layout. Learn more.

Left ArrowRight Arrow

39.29038, -76.61219

Hourly Observations for June 5, 2020

Temp ( °F °C ) Dew Point ( °F °C ) Humidity (%) Winds ( mph kmh ) Pressure ( in mb ) Visibility ( mi km ) Precip ( " mm )
12:23 am 00:23 Cloudy with Thunderstorms 70 21.1 68 20 93 93 E 6 9 29.93 1013 3 5 0.16 4.06
12:54 am 00:54 Cloudy with Thunderstorms 70 21.1 67 19.4 90 90 E 3 6 29.92 1013 5 8 0.27 6.86
1:26 am 01:26 Cloudy with Rain 70 21.1 68 20 93 93 Calm 29.94 1014 3 4 0.24 6.10
1:54 am 01:54 Cloudy with Rain 70 21.1 68 20 93 93 Calm 29.91 1013 5 8 0.35 8.89
2:54 am 02:54 Mostly Cloudy 70 21.1 68 20 93 93 SE 5 7 29.88 1012 10 16 0.07 1.78
3:54 am 03:54 Mostly Cloudy 69 20.6 67 19.4 93 93 S 5 7 29.88 1012 10 16 0.00 0.00
4:54 am 04:54 Mostly Cloudy 69 20.6 67 19.4 93 93 Calm 29.89 1012 10 16 0.00 0.00
5:06 am 05:06 Mostly Cloudy 69 20.6 67 19.4 93 93 SSW 3 6 29.89 1012 10 16 0.00 0.00
5:54 am 05:54 Mostly Cloudy 70 21.1 67 19.4 90 90 Calm 29.90 1012 10 16 0.00 0.00
6:54 am 06:54 Cloudy 70 21.1 68 20 93 93 VRB 3 6 29.92 1013 9 14 0.00 0.00
7:54 am 07:54 Cloudy 72 22.2 69 20.6 91 91 WSW 3 6 29.93 1013 8 13 0.00 0.00
8:54 am 08:54 Mostly Cloudy 74 23.3 69 20.6 85 85 SW 3 6 29.93 1013 10 16 0.00 0.00
9:49 am 09:49 Mostly Cloudy 75 24 70 21 83 83 SW 7 11 29.91 1013 10 16 0.00 0.00
9:54 am 09:54 Mostly Cloudy 78 25.6 70 21.1 76 76 SW 7 11 29.91 1013 10 16 0.00 0.00
10:51 am 10:51 Mostly Cloudy 79 26 70 21 74 74 SW 5 7 29.90 1013 10 16 0.00 0.00
10:54 am 10:54 Mostly Cloudy 79 26.1 70 21.1 74 74 SSW 6 9 29.91 1013 10 16 0.00 0.00
11:44 am 11:44 Mostly Cloudy 83 28.3 71 21.7 67 67 SSE 7 11 29.90 1013 10 16 0.00 0.00
11:54 am 11:54 Mostly Cloudy 83 28.3 71 21.7 67 67 S 8 13 29.91 1013 10 16 0.00 0.00
12:54 pm 12:54 Mostly Cloudy 85 29.4 70 21.1 61 61 SSW 8 13 29.90 1012 10 16 0.00 0.00
1:13 pm 13:13 Mostly Cloudy 84 28.9 69 20.6 61 61 SW 8 13 29.88 1012 10 16 0.00 0.00
1:54 pm 13:54 Mostly Cloudy 87 30.6 70 21.1 57 57 SW 8 13 29.87 1012 10 16 0.00 0.00
2:54 pm 14:54 Mostly Cloudy 88 31.1 69 20.6 54 54 SW 10 17 29.84 1011 10 16 0.00 0.00
3:54 pm 15:54 Mostly Cloudy 86 30 70 21.1 59 59 SSE 9 15 29.82 1010 10 16 0.00 0.00
4:54 pm 16:54 Mostly Cloudy 85 29.4 70 21.1 61 61 S 9 15 29.82 1010 10 16 0.00 0.00
5:54 pm 17:54 Mostly Cloudy with Light Rain 76 24.4 67 19.4 74 74 WNW 14 22 29.84 1010 8 13 0.01 0.25
6:14 pm 18:14 Mostly Cloudy with Thunderstorms 73 22.8 67 19.4 81 81 W 10 17 29.84 1011 8 13 0.00 0.00
6:49 pm 18:49 Cloudy with Heavy Rain 72 22 70 21 94 94 N 7 11 29.86 1011 4 6 0.07 1.78
6:54 pm 18:54 Cloudy with Light Rain 72 22.2 69 20.6 91 91 NNE 5 7 29.86 1011 2 3 0.11 2.79
7:00 pm 19:00 Cloudy with Light Rain 72 22.2 69 20.6 91 91 NNE 3 6 29.85 1011 3 5 0.00 0.00
7:54 pm 19:54 Cloudy with Light Rain 72 22.2 69 20.6 91 91 Calm 29.86 1011 6 10 0.07 1.78
8:54 pm 20:54 Cloudy with Light Rain 72 22.2 69 20.6 91 91 S 5 7 29.86 1011 9 14 0.08 2.03
9:54 pm 21:54 Mostly Cloudy 72 22.2 69 20.6 91 91 Calm 29.86 1011 10 16 0.01 0.25
10:36 pm 22:36 Cloudy with Fog 72 22.2 69 20.6 91 91 SSW 5 7 29.86 1011 6 10 0.00 0.00
10:54 pm 22:54 Cloudy with Fog 72 22.2 69 20.6 91 91 Calm 29.86 1011 6 10 0.00 0.00
11:54 pm 23:54 Cloudy with Mist and Fog 71 21.7 69 20.6 94 94 W 5 7 29.86 1011 6 10 0.00 0.00

Powered by AerisWeather